Location: Waco, TX
(31.5480°N, 97.1670°W)
Time: 08:30:08
(UTC-05:00)

ISS - Pass Details

Date: 12 October 2019
Orbit: 411 x 421 km, 51.6° (Epoch: 18 October)

Event Time Altitude Azimuth Distance (km) Brightness Sun altitude
Rises 18:54:23 0° 319° (NW) 2,341 0.5 0.4°
Reaches altitude 10° 18:56:30 10° 324° (NW) 1,477 -0.6 0.0°
Maximum altitude 18:59:46 55° 43° (NE) 495 -3.6 -0.7°
Drops below altitude 10° 19:03:00 10° 123° (ESE) 1,469 -1.4 -1.4°
Sets 19:05:06 0° 127° (SE) 2,327 -0.4 -1.8°
